Location: Grundy Observatory
(40.0525°N, 76.3328°W)
Time: 16:31:18
(UTC-04:00)

Daily predictions for brighter satellites

Satellite Brightness Start Highest point End
(mag) Time Altitude Azimuth Time Altitude Azimuth Time Altitude Azimuth
Cosmos 1867 4.0 20:18:58 10° NNW 20:24:16 48° NE 20:29:29 10° SE
Cosmos 1933 3.7 20:21:29 10° SSE 20:25:17 41° E 20:29:05 10° NNE
Cosmos 2263 Rocket 2.2 20:20:38 10° NNW 20:26:13 74° ENE 20:31:47 10° SSE
Cosmos 2242 Rocket 3.8 20:29:33 10° S 20:34:02 81° W 20:38:32 10° N
Cosmos 1655 Rocket 4.1 20:28:01 10° N 20:34:23 68° E 20:40:41 10° SSE
USA 229 DEB 3.8 20:29:28 10° SSW 20:36:03 54° ESE 20:42:44 10° NE
Cosmos 1862 3.3 20:32:02 10° N 20:36:04 67° E 20:40:06 10° SSE
USA 229 3.8 20:29:36 10° SSW 20:36:10 53° ESE 20:42:51 10° NE
Cosmos 2279 Rocket 4.0 20:32:17 10° S 20:38:28 73° E 20:44:41 10° N
Cosmos 1408 3.0 20:36:09 10° NNW 20:39:48 65° W 20:43:23 10° S
Cosmos 2322 Rocket 3.4 20:35:21 10° SW 20:40:45 49° WNW 20:46:13 10° NNE
Cosmos 1825 2.8 20:40:32 10° NNW 20:44:17 60° W 20:48:01 10° S
FALCON 9 R/B 1.7 20:43:51 10° WSW 20:46:12 24° S 20:47:35 14° SE
Cosmos 2360 Rocket 2.2 20:41:22 10° SSW 20:46:59 74° ESE 20:52:40 10° NNE
Cosmos 1428 Rocket 4.4 20:43:39 10° N 20:49:47 77° E 20:55:55 10° S
ATLAS 5 CENTAUR R/B 2.5 20:47:18 10° NW 20:53:23 87° WSW 20:59:58 10° SSE
H-2A R/B 4.4 20:50:15 10° SSW 20:53:49 36° W 20:57:23 10° NNW
COSMOS 2428 3.2 20:51:11 10° S 20:56:24 39° ESE 21:01:39 10° NE
Cosmos 1908 Rocket 3.8 20:53:29 10° N 20:57:43 49° E 21:01:41 11° SSE
Resurs 01 Rocket 2.8 20:55:10 10° S 20:59:24 44° W 21:03:41 10° NNW
USA 267 3.6 20:54:23 10° NE 21:00:53 69° NW 21:07:23 10° WSW
SJ-11-01 4.4 20:57:12 10° SSE 21:01:47 58° ENE 21:06:22 10° N
BREEZE-M DEB (TANK) 4.4 20:59:27 10° WNW 21:02:41 44° N 21:11:23 10° E
Helios 1A 3.0 20:59:07 10° SSE 21:03:22 85° ENE 21:07:38 10° NNW
Cosmos 1939 Rocket 3.0 21:00:52 12° SSE 21:04:25 56° ENE 21:08:19 10° N
Atlas Centaur 2 3.3 21:02:20 10° WSW 21:07:59 37° S 21:12:50 18° SE
CZ-4B DEB 2.5 21:06:09 16° SSE 21:08:25 71° ENE 21:11:27 10° N
Cosmos 2322 3.8 21:03:54 10° SSW 21:09:37 85° WNW 21:15:22 10° NNE
Okean 1-7 3.6 21:08:36 14° SSE 21:11:58 38° E 21:16:03 10° NNE
Cosmos 1733 Rocket 4.2 21:08:09 10° NNW 21:12:25 45° W 21:16:38 10° SSW
Abrixas rocket 4.4 21:10:01 10° NW 21:12:35 21° N 21:15:10 10° ENE
Cosmos 1782 Rocket 4.0 21:08:26 10° N 21:12:37 42° ENE 21:15:11 21° SE
SL-16 R/B 4.4 21:08:21 10° WSW 21:13:11 28° WNW 21:18:04 10° N
Cosmos 1606 4.3 21:13:17 17° E 21:13:17 17° E 21:15:44 10° NE
YAOGAN 6 3.2 21:11:35 22° SE 21:13:24 39° ENE 21:16:47 10° N
Sich 1 Rocket 3.6 21:09:00 10° N 21:13:32 76° E 21:17:37 13° SSE
Meteor 1-25 Rocket 4.4 21:16:59 10° N 21:22:24 51° ENE 21:25:49 22° SE
Cosmos 968 Rocket 3.8 21:20:43 10° NNW 21:25:53 65° WSW 21:30:31 13° S
Meteor 2-10 Rocket 4.1 21:20:24 10° SSW 21:26:12 71° W 21:31:57 10° N
Cosmos 1844 Rocket 3.0 21:21:23 10° NNW 21:26:49 50° ENE 21:29:48 25° SE
CZ-4C R/B 3.9 21:20:43 10° NNW 21:26:59 33° NE 21:31:55 17° E
Cosmos 2237 Rocket 3.3 21:26:55 22° ESE 21:27:26 23° E 21:31:45 10° NE
Meteor 1-14 Rocket 4.2 21:23:01 10° N 21:28:46 80° E 21:33:25 17° SSE
Cosmos 2333 4.1 21:26:19 10° SSW 21:31:59 69° ESE 21:37:44 10° NNE
Cosmos 2278 Rocket 3.5 21:28:36 10° N 21:33:15 25° NE 21:35:33 19° E
Okean 2 Rocket 3.3 21:29:06 10° N 21:33:32 51° E 21:35:19 31° SE
USA 234 3.5 21:30:18 21° ESE 21:34:43 59° NE 21:41:07 10° NW
Cosmos 2333 Rocket 2.7 21:32:00 20° SSE 21:35:22 37° ESE 21:40:38 10° NE
Helios 1B rocket 3.8 21:34:08 10° N 21:37:59 40° WNW 21:41:50 10° SW
Cosmos 1703 Rocket 4.1 21:40:25 10° SSW 21:44:47 58° W 21:49:08 10° N
Envisat 4.1 21:43:18 10° S 21:48:05 42° W 21:52:54 10° NNW
Cosmos 2219 Rocket 2.1 21:43:15 10° S 21:48:43 61° ESE 21:54:16 10° NNE
Cosmos 1633 4.0 21:45:43 10° NNE 21:48:20 25° ENE 21:48:20 25° ENE
SPOT 5 2.9 21:57:52 45° ESE 21:58:58 58° ENE 22:03:26 10° N
SeaSat 1 3.4 21:58:47 29° E 21:59:59 33° NE 22:04:23 10° N
Gbstr 26 Del rocket 4.4 21:53:20 10° SSW 22:00:43 60° SE 22:08:42 10° ENE
NOSS 0 Rocket 3.9 22:00:21 24° S 22:03:58 58° ESE 22:10:00 10° NNE
ERS-1 Rocket 3.3 22:01:58 28° S 22:04:32 64° WSW 22:09:32 10° NNW
H-2A R/B 2.4 22:06:42 39° E 22:07:19 41° ENE 22:11:55 10° N
Cosmos 2151 Rocket 3.6 22:03:59 10° N 22:08:23 59° E 22:08:40 57° E
Milstar 3 4.3 22:05:39 10° WSW 22:10:23 18° SSW 22:11:48 17° S
Cosmos 1674 Rocket 4.4 22:15:44 37° ENE 22:15:44 37° ENE 22:18:52 10° NNE
Cosmos 1570 Rocket 3.9 22:11:35 23° SSW 22:14:57 87° WNW 22:20:16 10° NNE
Landsat 7 4.5 22:16:56 39° ENE 22:17:00 39° ENE 22:21:25 10° N
Okean 1 Rocket 4.5 22:13:45 10° NNE 22:16:49 26° ENE 22:16:49 26° ENE
NOSS 3-1 (C) 3.6 22:13:13 10° SW 22:18:57 72° NW 22:25:24 10° NNE
MetOp-B 4.2 22:17:11 40° S 22:19:07 71° WSW 22:24:29 10° NNW
Cosmos 1782 3.4 22:18:24 38° SW 22:19:34 53° W 22:23:30 10° N
ASTEX 1 3.9 22:21:11 43° ENE 22:21:11 43° ENE 22:25:48 10° N
YAOGAN 11 4.3 22:20:58 54° SSW 22:21:41 64° WSW 22:25:59 10° NNW
Cosmos 1602 4.5 22:18:01 10° N 22:20:56 42° NE 22:20:56 42° NE
Iridium 4 Rocket 4.3 22:21:47 10° NNE 22:24:24 29° NE 22:24:24 29° NE
H-2A R/B 3.1 22:27:25 34° NE 22:27:25 34° NE 22:30:48 10° N
Cosmos 2208 Rocket 4.2 22:25:08 26° SSW 22:28:15 74° WNW 22:33:35 10° NNE
Cosmos 1346 Rocket 3.3 22:31:36 53° N 22:31:36 53° N 22:34:42 10° N
Terra 2.6 22:32:31 38° ENE 22:32:31 38° ENE 22:36:32 10° N
Meteor 1-27 Rocket 3.6 22:33:10 61° S 22:34:11 82° E 22:39:47 10° N
NOSS 3-1 (A) 3.5 22:31:01 10° SW 22:36:46 73° NW 22:43:14 10° NNE
ATLAS 2AS CENTAUR R/B 3.9 22:39:31 30° E 22:39:31 30° E 22:44:51 10° NE
ARGOS 3.5 22:41:15 46° SW 22:42:27 56° W 22:47:44 10° NNW
Cosmos 1980 3.8 22:42:14 38° SW 22:44:29 75° WNW 22:50:10 10° NNE
Cosmos 1898 Rocket 3.5 22:39:32 10° NNW 22:44:33 64° ENE 22:44:33 64° ENE
SL-08 R/B 4.3 22:40:13 10° N 22:46:23 87° W 22:47:23 64° S
Cosmos 1553 Rocket 4.0 22:46:05 50° SSW 22:47:51 81° W 22:54:05 10° N
Cosmos 1300 Rocket 4.0 22:44:07 10° N 22:47:37 57° N 22:47:37 57° N
Cosmos 1606 4.5 22:48:18 26° W 22:48:47 27° WNW 22:52:04 10° NNW
Cosmos 1844 4.4 22:43:27 10° NW 22:48:47 44° WSW 22:49:48 40° SW
SL-16 R/B 3.0 22:53:21 37° ENE 22:53:21 37° ENE 22:57:06 10° NE
SPOT 1/Viking Rocket 3.9 22:55:00 55° WSW 22:55:25 57° W 23:00:34 10° NNW
Atlas Centaur 2 3.9 22:50:58 10° WSW 22:55:28 27° SSW 22:55:28 27° SSW
ATLAS 3B R/B 4.0 22:55:21 10° NNW 23:01:08 28° NE 23:03:13 24° ENE
Meteor 1-11 Rocket 3.9 22:58:12 10° NNW 23:03:39 61° W 23:04:01 59° WSW
ATLAS CENTAUR R/B 3.6 23:12:45 19° NNE 23:12:45 19° NNE 23:13:54 10° NNE
Cosmos 1844 Rocket 4.4 23:06:11 10° NW 23:10:16 21° W 23:11:29 20° WSW
Cosmos 2237 Rocket 3.0 23:08:37 30° WSW 23:11:05 49° WNW 23:16:37 10° NNE
Cosmos 468 Rocket 4.3 23:13:09 65° WNW 23:13:09 65° WNW 23:18:22 10° NNE
Cosmos 883 Rocket 4.3 23:14:58 79° ENE 23:14:58 79° ENE 23:20:50 10° N
CZ-4C R/B 3.0 23:08:52 10° NW 23:16:04 66° WSW 23:17:07 60° SSW
Cosmos 1386 Rocket 4.4 23:10:29 10° N 23:16:52 80° W 23:17:08 78° SW
Cosmos 2278 Rocket 2.8 23:12:08 10° NW 23:17:25 48° WSW 23:17:25 48° WSW
USA 234 3.9 23:17:39 40° SW 23:17:50 40° SW 23:23:55 10° WNW
CZ-4B R/B 4.4 23:13:39 10° NNE 23:16:37 38° NNE 23:16:37 38° NNE
Cosmos 2333 Rocket 3.8 23:14:32 10° WSW 23:19:39 32° WNW 23:24:48 10° N
Cosmos 1709 Rocket 4.0 23:21:34 10° N 23:27:37 75° NE 23:27:37 75° NE
Cosmos 2219 Rocket 4.5 23:29:01 10° W 23:33:07 20° NW 23:37:15 10° N
SeaSat 1 3.9 23:38:34 29° W 23:38:34 29° W 23:41:52 10° NW
H-2A R/B 3.9 23:47:19 21° W 23:47:19 21° W 23:50:36 10° NW
